Middletown, RI

12:08 AM EST on December 04, 2016 (GMT -0500)
Newport State

Weather History for KUUU - February, 2013

Change the Weather History Date:

Tuesday, February 26, 2013

  Actual Average Record
Temperature  
Mean Temperature 38 °F -  
Max Temperature 41 °F 39 °F 53 °F (2002)
Min Temperature 34 °F 25 °F 1 °F (1990)
Degree Days  
Heating Degree Days 28    
Moisture  
Dew Point 29 °F    
Average Humidity 75    
Maximum Humidity 89    
Minimum Humidity 55    
Precipitation  
Precipitation 0.00 in - - ()
Sea Level Pressure  
Sea Level Pressure 30.24 in    
Wind  
Wind Speed 5 mph (ESE)    
Max Wind Speed 13 mph    
Max Gust Speed 20 mph    
Visibility 10 miles    
Events Rain    
Averages and records for this station are not official NWS values.
T = Trace of Precipitation, MM = Missing Value Source: NWS Daily Summary

Daily Weather History Graph

Daily Weather History Graph

Search for Another Location

Airport or City:

Trip Planner

Search our weather history database for the weather conditions in past years. The results will help you decide how hot, cold, wet, or windy it might be!

Date:

Astronomy

Feb. 26, 2013 Rise Set
Actual Time 6:24 AM EST 5:32 PM EST
Civil Twilight 5:56 AM EST 6:00 PM EST
Nautical Twilight 5:24 AM EST 6:32 PM EST
Astronomical Twilight 4:52 AM EST 7:04 PM EST
Moon 6:47 PM EST (2/26) 6:23 AM EST (2/26)
Length of Visible Light 12h 04m
Length of Day
11h 08m
Full, 99% of the Moon is Illuminated
Feb 26
Full
Mar 4
Last Quarter
Mar 11
New
Mar 19
First Quarter
Mar 27
Full

Hourly Weather History & Observations

Time (EST) Temp. Windchill Dew Point Humidity Pressure Visibility Wind Dir Wind Speed Gust Speed Precip Events Conditions
12:53 AM 35.1 °F - 30.0 °F 82% 30.25 in 10.0 mi Calm Calm - N/A   Overcast
1:53 AM 34.0 °F 31.0 °F 30.0 °F 85% 30.23 in 10.0 mi East 3.5 mph - N/A   Overcast
2:53 AM 34.0 °F - 30.0 °F 85% 30.25 in 10.0 mi Calm Calm - N/A   Overcast
3:53 AM 34.0 °F - 30.0 °F 85% 30.28 in 10.0 mi Calm Calm - N/A   Overcast
4:53 AM 34.0 °F - 30.9 °F 89% 30.27 in 10.0 mi Calm Calm - N/A   Overcast
5:53 AM 34.0 °F - 30.9 °F 89% 30.29 in 10.0 mi Calm Calm - N/A   Overcast
6:53 AM 34.0 °F 31.0 °F 30.0 °F 85% 30.30 in 10.0 mi East 3.5 mph - N/A   Overcast
7:53 AM 34.0 °F 29.8 °F 30.0 °F 85% 30.31 in 10.0 mi East 4.6 mph - N/A   Overcast
8:53 AM 36.0 °F 32.1 °F 27.0 °F 70% 30.32 in 10.0 mi ESE 4.6 mph - N/A   Overcast
9:53 AM 37.9 °F 32.1 °F 30.0 °F 73% 30.32 in 10.0 mi ESE 8.1 mph - N/A   Mostly Cloudy
10:53 AM 39.0 °F 32.3 °F 28.9 °F 67% 30.32 in 10.0 mi SSE 10.4 mph - N/A   Clear
11:53 AM 41.0 °F 34.7 °F 26.1 °F 55% 30.32 in 10.0 mi SSE 10.4 mph - N/A   Clear
12:53 PM 39.9 °F 33.4 °F 27.0 °F 60% 30.30 in 10.0 mi South 10.4 mph - N/A   Clear
1:53 PM 39.0 °F 32.8 °F 25.0 °F 57% 30.29 in 10.0 mi SSE 9.2 mph - N/A   Clear
2:53 PM 39.0 °F 33.4 °F 25.0 °F 57% 30.27 in 10.0 mi SSE 8.1 mph - N/A   Clear
3:53 PM 37.9 °F 32.7 °F 26.1 °F 62% 30.27 in 10.0 mi SE 6.9 mph - N/A   Clear
4:53 PM 37.0 °F 32.4 °F 28.0 °F 70% 30.26 in 10.0 mi SE 5.8 mph - N/A   Clear
5:53 PM 36.0 °F 33.3 °F 28.0 °F 73% 30.25 in 10.0 mi ESE 3.5 mph - N/A   Clear
6:53 PM 36.0 °F 29.6 °F 28.0 °F 73% 30.22 in 10.0 mi East 8.1 mph - N/A   Clear
7:53 PM 36.0 °F 29.6 °F 28.0 °F 73% 30.23 in 10.0 mi East 8.1 mph - N/A   Clear
8:53 PM 36.0 °F 30.3 °F 28.9 °F 76% 30.20 in 10.0 mi ENE 6.9 mph - N/A   Clear
9:53 PM 36.0 °F 29.6 °F 28.9 °F 76% 30.17 in 10.0 mi ENE 8.1 mph - N/A   Overcast
10:15 PM 35.6 °F 28.0 °F 30.2 °F 81% 30.15 in 10.0 mi East 10.4 mph - N/A   Overcast
10:25 PM 37.4 °F 31.4 °F 30.2 °F 75% 30.15 in 10.0 mi East 8.1 mph 16.1 mph N/A   Overcast
10:32 PM 37.4 °F 30.3 °F 30.2 °F 75% 30.14 in 10.0 mi ENE 10.4 mph - N/A   Overcast
10:53 PM 37.0 °F 29.3 °F 30.0 °F 76% 30.13 in 10.0 mi ENE 11.5 mph - N/A   Overcast
11:28 PM 37.4 °F 30.3 °F 32.0 °F 81% 30.11 in 10.0 mi East 10.4 mph - N/A   Overcast
11:53 PM 37.0 °F 28.9 °F 33.1 °F 86% 30.10 in 10.0 mi East 12.7 mph 19.6 mph 0.00 in Rain Light Rain